Regional Weather Roundup
Issued by NWS

Home | Current Version | Previous Version | Text Only | Print | Product List | Glossary On
Versions: 1 2 3 4 5 6 7 8 9 10 11 12 13 14 15 16 17 18 19 20 21 22 23 24 25 26 27 28 29 30 31 32 33 34 35 36 37 38 39 40 41 42 43 44 45 46 47 48 49 50
000
ASPQ40 PGUM 030314
RWRPQ
WEATHER ROUNDUP FOR THE MARIANAS AND MICRONESIA
NATIONAL WEATHER SERVICE TIYAN GU
100 PM CHST FRI JUL 03 2015

GUZ001>004-030400-
MARIANA ISLANDS-

CITY           SKY/WX    TMP DP  RH WIND       PRES   REMARKS
GUAM AIRPORT   PTSUNNY   84  79  84 NE18G26   29.65S HX  96
ANDERSEN AFB   PTSUNNY   81  77  89 NE21G29   29.66F
ROTA AIRPORT   NOT AVBL
TINIAN AP      NOT AVBL
SAIPAN AP      MOSUNNY   88  75  66 NE24G33   29.66F HX  97

$$

PMZ161-030400-
REPUBLIC OF PALAU-

CITY           SKY/WX    TMP DP  RH WIND       PRES   REMARKS
KOROR AP       CLOUDY    86  77  74 W15G23    29.80F HX  97
KOROR WSO      CLOUDY    86  75  70 W12       29.80F HX  95

$$

PMZ171>174-030400-
FEDERATED STATES OF MICRONESIA-

CITY           SKY/WX    TMP DP  RH WIND       PRES   REMARKS
YAP AIRPORT    NOT AVBL
CHUUK AP       PTSUNNY   84  79  84 SW9       29.63F HX  96
POHNPEI AP     LGT RAIN  82  77  83 NW5       29.72F HX  91
POHNPEI WSO    LGT RAIN  82  79  89 W5        29.75F HX  93
KOSRAE AP      CLOUDY    86  79  79 NW9       29.72F HX  99

$$

PMZ181-030400-
REPUBLIC OF THE MARSHALL ISLANDS-

CITY           SKY/WX    TMP DP  RH WIND       PRES   REMARKS
KWAJALEIN AP   SUNNY     86  75  70 N10G18    29.73F HX  95
MAJURO AP      CLOUDY    82  77  83 W20G32    29.62  HX  91
MAJURO WSO     CLOUDY    81  73  78 W24G35    29.64F

$$



USA.gov is the U.S. government's official web portal to all federal, state and local government web resources and services.